Back to catalog

CZ-6A DEB

AliveSSO
NORAD 56686·DEBRIS·🇨🇳 China

Launched Nov 11, 2022 from Taiyuan Satellite Launch Center

Loading…

Next Passes (next 24 hours)

TLE

AgingSource: Space-Track

Epoch: Sep 5, 2026, 05:34 UTC

1 56686U 22151AHN 26248.23261911  .00000108  00000-0  85354-4 0  9997
2 56686  98.8556 248.3601 0046229 115.4060 245.1905 14.09881450171373

Track CZ-6A DEB in real time with AllMySat

Download on the App Store